Regional Weather Roundup
Issued by NWS

Home | Current Version | Previous Version | Text Only | Print | Product List | Glossary On
Versions: 1 2 3 4 5 6 7 8 9 10 11 12 13 14 15 16 17 18 19 20 21 22 23 24 25 26 27 28 29 30 31 32 33 34 35 36 37 38 39 40 41 42 43 44 45 46 47 48 49 50
109
ASUS44 KJAN 010110
RWRMS

MISSISSIPPI HOURLY WEATHER ROUNDUP
NATIONAL WEATHER SERVICE JACKSON MS
800 PM CDT TUE MAR 31 2015

NOTE: "FAIR: INDICATES FEW OR NO CLOUDS BELOW 12,000 FEET WITH NO
SIGNIFICANT WEATHER AND/OR OBSTRUCTIONS TO VISIBILITY.

MSZ001>002-007>008-010>013-018>021-025>028-034>036-010200-
NORTHWEST MISSISSIPPI

CITY           SKY/WX    TMP DP  RH WIND       PRES   REMARKS
CLARKSDALE       N/A     66  63  88 S7        29.93R
CLEVELAND      FAIR      65  64  96 S8        29.92R
GREENWOOD      CLEAR     68  59  73 SW10      29.94R
GREENVILLE     CLEAR     66  61  84 S7        29.93R
OLIVE BRANCH   PTCLDY    68  66  94 SW6       29.91R
OXFORD         FAIR      66  59  77 SW5       29.94S
TUNICA         PTCLDY    70  63  78 SW7       29.93R
$$

MSZ003>006-009-014>017-022>024-029>033-037>039-010200-
NORTHEAST MISSISSIPPI

CITY           SKY/WX    TMP DP  RH WIND       PRES   REMARKS
COLUMBUS AFB   MOCLDY    66  61  84 NW1       29.93R
CORINTH        FAIR      68  57  68 SE6       29.89R
GOLDN TRIANGLE PTCLDY    73  57  56 W5        29.92R
STARKVILLE     FAIR      70  55  60 CALM      29.94R
TUPELO         CLEAR     66  59  78 CALM      29.91R
$$

MSZ040-058-010200-
CENTRAL MISSISSIPPI

CITY           SKY/WX    TMP DP  RH WIND       PRES   REMARKS
JACKSON INTL   MOCLDY    72  55  55 S3        29.98R
JACKSON HAWKNS PTCLDY    74  55  51 S5        29.98R
MERIDIAN KEY   MOCLDY    69  57  65 CALM      29.99R
MERIDIAN NAS   MOCLDY    74  53  48 SW8       29.98R
RAYMOND        FAIR      73  70  88 S5        29.97S
VICKSBURG      CLEAR     73  58  59 S7        29.96R
$$

MSZ059>079-010200-
SOUTH MISSISSIPPI

CITY           SKY/WX    TMP DP  RH WIND       PRES   REMARKS
BROOKHAVEN     FAIR      72  61  68 CALM      30.02R
HATTIESBURG    CLEAR     75  58  55 CALM      30.01R
MCCOMB         PTCLDY    72  58  61 SW3       30.01R
NATCHEZ        CLEAR     73  57  56 S5        30.00R
PINE BELT      CLEAR     68  55  64 SW3       30.02R
$$

MSZ080>082-010200-
COASTAL MISSISSIPPI

CITY           SKY/WX    TMP DP  RH WIND       PRES   REMARKS
BAY ST LOUIS   PTCLDY    72  55  56 MISG      30.03R
BILOXI         PTCLDY    74  66  76 SW13      30.02R
PASCAGOULA     PTCLDY    72  65  78 SW7       30.03R
GULFPORT       MOCLDY    75  64  68 SW8       30.02R
$$



USA.gov is the U.S. government's official web portal to all federal, state and local government web resources and services.